SCP
0 0 0 0 0 0 0 0 0 0 0 0 0 0 0 0 0 0 0 0 0 0
0 0 0 0 0 0 0 0 0 0 0 0 0 0 0 0 0 0 0 0 0 0
0 0 0 0 0 0 0 0 0 0 0 0 0 0 0 0 0 0 0 0 0 0
0 0 0 0 0 0 0 0 0 0 0 0 0 0 0 0 0 0 0 0 0 0
0 0 0 0 0 0 0 0 0 0 0 0 0 0 0 0 0 0 0 0 0 0
0 0 0 0 0 0 0 0 0 0 0 0 0 0 0 0 0 0 0 0 0 0
0 0 0 0 0 0 0 0 0 0 0 0 0 0 0 0 0 0 0 0 0 0
0 0 0 0 0 0 0 0 0 0 0 0 0 0 0 0 0 0 0 0 0 0
0 0 0 0 0 0 0 0 0 0 0 0 0 0 0 0 0 0 0 0 0 0
0 0 0 0 0 0 0 0 0 0 0 0 0 0 0 0 0 0 0 0 0 0
0 0 0 0 0 0 0 0 0 0 0 0 0 0 0 0 0 0 0 0 0 0
0 0 0 0 0 0 0 0 0 0 0 0 0 0 0 0 0 0 0 0 0 0
0 0 0 0 0 0 0 0 0 0 0 0 0 0 0 0 0 0 0 0 0 0
0 0 0 0 0 0 0 0 0 0 0 0 0 0 0 -0 0 0 0 0 0 0
Wind_Speed_500mb
10 11 5 9 19 20 28 33 38 42 45 46 49 53 46 49 49 54 50 49 51 53
8 9 9 13 14 19 19 14 17 19 23 31 31 32 31 36 39 48 55 58 62 63
8 2 4 8 15 23 19 19 17 19 21 25 30 33 36 40 45 51 55 57 62 67
10 11 12 9 9 9 14 21 26 27 29 32 36 38 41 45 51 55 59 62 67 73
9 10 8 12 12 18 24 32 35 39 42 42 43 46 48 50 52 54 57 58 61 66
10 10 12 19 25 28 34 38 39 41 42 44 45 45 44 43 43 45 48 51 55 57
15 17 20 24 29 33 36 38 37 37 38 40 42 43 42 41 41 46 50 52 53 53
17 22 28 34 39 42 39 36 35 36 37 40 44 40 39 39 45 49 53 55 52 51
25 29 34 38 41 40 37 34 36 38 40 38 33 30 28 33 42 44 49 52 52 54
31 33 35 34 30 28 29 35 32 30 31 31 29 31 33 35 40 45 46 49 52 56
28 26 26 23 20 23 26 26 28 29 29 30 29 35 34 31 35 41 46 52 57 60
15 18 20 11 15 21 21 22 26 30 36 36 31 31 34 33 38 44 47 49 56 50
9 11 7 9 13 13 16 23 28 33 37 32 33 32 29 29 37 39 42 44 38 43
8 11 2 5 5 11 16 24 30 38 40 35 36 32 26 26 31 36 36 44 51 49
Wind_Direction_500mb
140 118 89 344 318 311 274 259 252 245 248 247 246 247 244 236 248 250 255 257 261 264
47 51 33 327 283 243 236 229 223 230 240 251 254 252 257 262 258 252 255 261 266 270
99 117 238 224 235 237 256 264 265 256 258 259 262 261 262 262 264 263 265 269 273 276
49 28 4 329 287 283 277 284 291 296 289 283 282 282 280 279 278 279 279 280 280 280
22 357 323 311 305 303 303 301 302 301 301 299 295 294 293 293 292 292 292 292 290 291
347 337 327 320 321 317 313 313 314 310 307 310 312 311 309 307 306 307 308 305 302 302
335 330 324 317 317 317 318 319 317 316 319 318 314 311 309 306 305 307 306 306 305 303
315 309 306 306 310 315 317 319 323 322 323 322 319 315 309 308 311 310 307 307 307 305
304 302 304 310 314 318 323 328 326 329 330 330 332 327 323 312 309 310 308 309 309 305
300 305 311 315 318 323 332 336 339 343 342 341 334 327 321 311 304 307 315 322 321 317
305 308 310 319 332 338 348 360 358 355 350 342 343 331 325 324 320 322 320 323 320 318
311 319 338 11 5 357 3 0 352 356 349 344 340 334 330 324 314 321 318 316 326 320
348 342 11 33 10 355 5 9 356 356 355 358 358 355 346 335 324 323 327 340 344 334
323 320 163 19 338 5 17 12 4 8 18 12 9 4 11 6 356 353 360 1 346 344
Wind_Speed_850mb
10 11 5 9 19 20 28 33 38 42 45 46 49 53 46 49 49 54 50 49 51 53
8 9 9 13 14 19 19 14 17 19 23 31 31 32 31 36 39 48 55 58 62 63
8 2 4 8 15 23 19 19 17 19 21 25 30 33 36 40 45 51 55 57 62 67
10 11 12 9 9 9 14 21 26 27 29 32 36 38 41 45 51 55 59 62 67 73
9 10 8 12 12 18 24 32 35 39 42 42 43 46 48 50 52 54 57 58 61 66
10 10 12 19 25 28 34 38 39 41 42 44 45 45 44 43 43 45 48 51 55 57
15 17 20 24 29 33 36 38 37 37 38 40 42 43 42 41 41 46 50 52 53 53
17 22 28 34 39 42 39 36 35 36 37 40 44 40 39 39 45 49 53 55 52 51
25 29 34 38 41 40 37 34 36 38 40 38 33 30 28 33 42 44 49 52 52 54
31 33 35 34 30 28 29 35 32 30 31 31 29 31 33 35 40 45 46 49 52 56
28 26 26 23 20 23 26 26 28 29 29 30 29 35 34 31 35 41 46 52 57 60
15 18 20 11 15 21 21 22 26 30 36 36 31 31 34 33 38 44 47 49 56 50
9 11 7 9 13 13 16 23 28 33 37 32 33 32 29 29 37 39 42 44 38 43
8 11 2 5 5 11 16 24 30 38 40 35 36 32 26 26 31 36 36 44 51 49
Wind_Direction_850mb
140 118 89 344 318 311 274 259 252 245 248 247 246 247 244 236 248 250 255 257 261 264
47 51 33 327 283 243 236 229 223 230 240 251 254 252 257 262 258 252 255 261 266 270
99 117 238 224 235 237 256 264 265 256 258 259 262 261 262 262 264 263 265 269 273 276
49 28 4 329 287 283 277 284 291 296 289 283 282 282 280 279 278 279 279 280 280 280
22 357 323 311 305 303 303 301 302 301 301 299 295 294 293 293 292 292 292 292 290 291
347 337 327 320 321 317 313 313 314 310 307 310 312 311 309 307 306 307 308 305 302 302
335 330 324 317 317 317 318 319 317 316 319 318 314 311 309 306 305 307 306 306 305 303
315 309 306 306 310 315 317 319 323 322 323 322 319 315 309 308 311 310 307 307 307 305
304 302 304 310 314 318 323 328 326 329 330 330 332 327 323 312 309 310 308 309 309 305
300 305 311 315 318 323 332 336 339 343 342 341 334 327 321 311 304 307 315 322 321 317
305 308 310 319 332 338 348 360 358 355 350 342 343 331 325 324 320 322 320 323 320 318
311 319 338 11 5 357 3 0 352 356 349 344 340 334 330 324 314 321 318 316 326 320
348 342 11 33 10 355 5 9 356 356 355 358 358 355 346 335 324 323 327 340 344 334
323 320 163 19 338 5 17 12 4 8 18 12 9 4 11 6 356 353 360 1 346 344